QPF
0.00 0.00 0.00 0.00 0.00 0.00 0.00 0.00 0.00 0.00 0.00 0.00 0.00 0.00 0.00 0.00 0.00 0.00 0.00 0.00 0.00 0.00 0.00 0.00 0.00 0.00 0.00 0.00 0.00 0.00 0.00 0.00 0.00 0.00 0.00 0.00 0.00 0.00 0.00 0.00 0.00 0.00 0.00 0.00 0.00
0.00 0.00 0.00 0.00 0.00 0.00 0.00 0.00 0.00 0.00 0.00 0.00 0.00 0.00 0.00 0.00 0.00 0.00 0.00 0.00 0.00 0.00 0.00 0.00 0.00 0.00 0.00 0.00 0.00 0.00 0.00 0.00 0.00 0.00 0.00 0.00 0.00 0.00 0.00 0.00 0.00 0.00 0.00 0.00 0.00
0.00 0.00 0.00 0.00 0.00 0.00 0.00 0.00 0.00 0.00 0.00 0.00 0.00 0.00 0.00 0.00 0.00 0.00 0.00 0.00 0.00 0.00 0.00 0.00 0.00 0.00 0.00 0.00 0.00 0.00 0.00 0.00 0.00 0.00 0.00 0.00 0.00 0.00 0.00 0.00 0.00 0.00 0.00 0.00 0.00
0.00 0.00 0.00 0.00 0.00 0.00 0.00 0.00 0.00 0.00 0.00 0.00 0.00 0.00 0.00 0.00 0.00 0.00 0.00 0.00 0.00 0.00 0.00 0.00 0.00 0.00 0.00 0.00 0.00 0.00 0.00 0.00 0.00 0.00 0.00 0.00 0.00 0.00 0.00 0.00 0.00 0.00 0.00 0.00 0.00
0.00 0.00 0.00 0.00 0.00 0.00 0.00 0.00 0.00 0.00 0.00 0.00 0.00 0.00 0.00 0.00 0.00 0.00 0.00 0.00 0.00 0.00 0.00 0.00 0.00 0.00 0.00 0.00 0.00 0.00 0.00 0.00 0.00 0.00 0.00 0.00 0.00 0.00 0.00 0.00 0.00 0.00 0.00 0.00 0.00
0.00 0.00 0.00 0.00 0.00 0.00 0.00 0.00 0.00 0.00 0.00 0.00 0.00 0.00 0.00 0.00 0.00 0.00 0.00 0.00 0.00 0.00 0.00 0.00 0.00 0.00 0.00 0.00 0.00 0.00 0.00 0.00 0.00 0.00 0.00 0.00 0.00 0.00 0.00 0.00 0.00 0.00 0.00 0.00 0.00
0.00 0.00 0.00 0.00 0.00 0.00 0.00 0.00 0.00 0.00 0.00 0.00 0.00 0.00 0.00 0.00 0.00 0.00 0.00 0.00 0.00 0.00 0.00 0.00 0.00 0.00 0.00 0.00 0.00 0.00 0.00 0.00 0.00 0.00 0.00 0.00 0.00 0.00 0.00 0.00 0.00 0.00 0.00 0.00 0.00
0.00 0.00 0.00 0.00 0.00 0.00 0.00 0.00 0.00 0.00 0.00 0.00 0.00 0.00 0.00 0.00 0.00 0.00 0.00 0.00 0.00 0.00 0.00 0.00 0.00 0.00 0.00 0.00 0.00 0.00 0.00 0.00 0.00 0.00 0.00 0.00 0.00 0.00 0.00 0.00 0.00 0.00 0.00 0.00 0.00
0.00 0.00 0.00 0.00 0.00 0.00 0.00 0.00 0.00 0.00 0.00 0.00 0.00 0.00 0.00 0.00 0.00 0.00 0.00 0.00 0.00 0.00 0.00 0.00 0.00 0.00 0.00 0.00 0.00 0.00 0.00 0.00 0.00 0.00 0.00 0.00 0.00 0.00 0.00 0.00 0.00 0.00 0.00 0.00 0.00
0.00 0.00 0.00 0.00 0.00 0.00 0.00 0.00 0.00 0.00 0.00 0.00 0.00 0.00 0.00 0.00 0.00 0.00 0.00 0.00 0.00 0.00 0.00 0.00 0.00 0.00 0.00 0.00 0.00 0.00 0.00 0.00 0.00 0.00 0.00 0.00 0.00 0.00 0.00 0.00 0.00 0.00 0.00 0.00 0.00
0.00 0.00 0.00 0.00 0.00 0.00 0.00 0.00 0.00 0.00 0.00 0.00 0.00 0.00 0.00 0.00 0.00 0.00 0.00 0.00 0.00 0.00 0.00 0.00 0.00 0.00 0.00 0.00 0.00 0.00 0.00 0.00 0.00 0.00 0.00 0.00 0.00 0.00 0.00 0.00 0.00 0.00 0.00 0.00 0.00
0.00 0.00 0.00 0.00 0.00 0.00 0.00 0.00 0.00 0.00 0.00 0.00 0.00 0.00 0.00 0.00 0.00 0.00 0.00 0.00 0.00 0.00 0.00 0.00 0.00 0.00 0.00 0.00 0.00 0.00 0.00 0.00 0.00 0.00 0.00 0.00 0.00 0.00 0.00 0.00 0.00 0.00 0.00 0.00 0.00
0.00 0.00 0.00 0.00 0.00 0.00 0.00 0.00 0.00 0.00 0.00 0.00 0.00 0.00 0.00 0.00 0.00 0.00 0.00 0.00 0.00 0.00 0.00 0.00 0.00 0.00 0.00 0.00 0.00 0.00 0.00 0.00 0.00 0.00 0.00 0.00 0.00 0.00 0.00 0.00 0.00 0.00 0.00 0.00 0.00
0.00 0.00 0.00 0.00 0.00 0.00 0.00 0.00 0.00 0.00 0.00 0.00 0.00 0.00 0.00 0.00 0.00 0.00 0.00 0.00 0.00 0.00 0.00 0.00 0.00 0.00 0.00 0.00 0.00 0.00 0.00 0.00 0.00 0.00 0.00 0.00 0.00 0.00 0.00 0.00 0.00 0.00 0.00 0.00 0.00
0.00 0.00 0.00 0.00 0.00 0.00 0.00 0.00 0.00 0.00 0.00 0.00 0.00 0.00 0.00 0.00 0.00 0.00 0.00 0.00 0.00 0.00 0.00 0.00 0.00 0.00 0.00 0.00 0.00 0.00 0.00 0.00 0.00 0.00 0.00 0.00 0.00 0.00 0.00 0.00 0.00 0.00 0.00 0.00 0.00
0.00 0.00 0.00 0.00 0.00 0.00 0.00 0.00 0.00 0.00 0.00 0.00 0.00 0.00 0.00 0.00 0.00 0.00 0.00 0.00 0.00 0.00 0.00 0.00 0.00 0.00 0.00 0.00 0.00 0.00 0.00 0.00 0.00 0.00 0.00 0.00 0.00 0.00 0.00 0.00 0.00 0.00 0.00 0.00 0.00
0.00 0.00 0.00 0.00 0.00 0.00 0.00 0.00 0.00 0.00 0.00 0.00 0.00 0.00 0.00 0.00 0.00 0.00 0.00 0.00 0.00 0.00 0.00 0.00 0.00 0.00 0.00 0.00 0.00 0.00 0.00 0.00 0.00 0.00 0.00 0.00 0.00 0.00 0.00 0.00 0.00 0.00 0.00 0.00 0.00
0.00 0.00 0.00 0.00 0.00 0.00 0.00 0.00 0.00 0.00 0.00 0.00 0.00 0.00 0.00 0.00 0.00 0.00 0.00 0.00 0.00 0.00 0.00 0.00 0.00 0.00 0.00 0.00 0.00 0.00 0.00 0.00 0.00 0.00 0.00 0.00 0.00 0.00 0.00 0.00 0.00 0.00 0.00 0.00 0.00
0.00 0.00 0.00 0.00 0.00 0.00 0.00 0.00 0.00 0.00 0.00 0.00 0.00 0.00 0.00 0.00 0.00 0.00 0.00 0.00 0.00 0.00 0.00 0.00 0.00 0.00 0.00 0.00 0.00 0.00 0.00 0.00 0.00 0.00 0.00 0.00 0.00 0.00 0.00 0.00 0.00 0.00 0.00 0.00 0.00
0.00 0.00 0.00 0.00 0.00 0.00 0.00 0.00 0.00 0.00 0.00 0.00 0.00 0.00 0.00 0.00 0.00 0.00 0.00 0.00 0.00 0.00 0.00 0.00 0.00 0.00 0.00 0.00 0.00 0.00 0.00 0.00 0.00 0.02 0.01 0.00 0.00 0.00 0.00 0.00 0.00 0.00 0.00 0.00 0.00
0.00 0.00 0.00 0.00 0.00 0.00 0.00 0.00 0.00 0.00 0.00 0.00 0.00 0.00 0.00 0.00 0.00 0.00 0.00 0.00 0.00 0.00 0.00 0.00 0.00 0.00 0.00 0.00 0.00 0.00 0.00 0.00 0.00 0.01 0.01 0.01 0.00 0.00 0.00 0.00 0.00 0.00 0.00 0.00 0.00
0.00 0.00 0.00 0.00 0.00 0.00 0.00 0.00 0.00 0.00 0.00 0.00 0.00 0.00 0.00 0.00 0.00 0.00 0.00 0.00 0.00 0.00 0.00 0.00 0.01 0.01 0.00 0.00 0.00 0.00 0.00 0.00 0.02 0.03 0.02 0.03 0.01 0.00 0.00 0.00 0.00 0.00 0.00 0.00 0.00
0.00 0.00 0.00 0.00 0.00 0.00 0.00 0.00 0.00 0.00 0.00 0.00 0.00 0.00 0.00 0.00 0.00 0.00 0.00 0.00 0.00 0.00 0.00 0.01 0.02 0.02 0.01 0.01 0.01 0.00 0.00 0.00 0.01 0.02 0.02 0.03 0.00 0.00 0.00 0.00 0.00 0.00 0.00 0.00 0.00
0.00 0.00 0.00 0.00 0.00 0.00 0.00 0.00 0.00 0.00 0.00 0.00 0.00 0.00 0.00 0.00 0.00 0.00 0.00 0.00 0.00 0.00 0.00 0.01 0.01 0.02 0.02 0.02 0.01 0.01 0.00 0.00 0.01 0.02 0.01 0.01 0.00 0.00 0.00 0.00 0.00 0.00 0.00 0.00 0.00
0.00 0.00 0.00 0.00 0.00 0.00 0.00 0.00 0.00 0.00 0.00 0.00 0.00 0.00 0.00 0.00 0.00 0.00 0.00 0.00 0.00 0.00 0.00 0.02 0.01 0.00 0.00 0.00 0.00 0.00 0.00 0.00 0.00 0.01 0.02 0.00 0.00 0.00 0.00 0.00 0.00 0.00 0.00 0.00 0.00
0.00 0.00 0.00 0.00 0.00 0.00 0.00 0.00 0.00 0.00 0.00 0.00 0.00 0.00 0.00 0.00 0.00 0.00 0.00 0.00 0.00 0.00 0.00 0.02 0.02 0.01 0.01 0.00 0.00 0.00 0.00 0.00 0.00 0.00 0.00 0.00 0.00 0.00 0.00 0.00 0.00 0.00 0.00 0.00 0.00
0.00 0.00 0.00 0.00 0.00 0.00 0.00 0.00 0.00 0.00 0.00 0.00 0.00 0.00 0.00 0.00 0.00 0.00 0.00 0.00 0.00 0.00 0.02 0.04 0.03 0.05 0.01 0.00 0.00 0.00 0.00 0.00 0.00 0.00 0.00 0.00 0.00 0.00 0.00 0.00 0.00 0.00 0.00 0.00 0.00
MSLP
1017.58 1017.18 1016.88 1016.64 1016.42 1016.31 1016.17 1016.03 1015.89 1015.69 1015.56 1015.42 1015.27 1015.03 1014.71 1014.47 1014.01 1013.17 1010.81 1008.94 1009.16 1009.79 1009.95 1008.37 1008.01 1007.55 1007.09 1006.06 1005.49 1005.33 1004.06 1002.86 1001.93 1001.60 1001.33 1001.26 1001.42 1002.17 1002.17 1002.70 1002.44 1002.07 1001.83 1001.65 1002.58
1017.51 1017.12 1016.79 1016.51 1016.26 1016.02 1015.92 1015.81 1015.70 1015.60 1015.47 1015.32 1015.11 1014.84 1014.56 1014.43 1013.07 1010.38 1008.62 1009.13 1009.46 1009.84 1009.32 1007.68 1007.00 1006.74 1006.05 1005.36 1005.21 1004.65 1003.51 1002.26 1001.57 1001.30 1001.51 1001.88 1002.10 1002.26 1002.73 1003.02 1002.42 1002.43 1002.25 1002.28 1002.51
1017.53 1017.10 1016.71 1016.33 1016.03 1015.81 1015.65 1015.57 1015.47 1015.35 1015.25 1015.05 1014.84 1014.65 1014.50 1014.19 1011.43 1007.14 1007.76 1008.63 1009.38 1009.67 1008.44 1006.94 1006.19 1005.92 1005.23 1004.71 1004.44 1004.13 1003.06 1001.80 1001.64 1002.64 1002.62 1002.36 1002.82 1003.66 1003.40 1003.26 1002.40 1002.06 1001.78 1001.91 1002.20
1017.56 1017.09 1016.70 1016.32 1016.00 1015.73 1015.51 1015.41 1015.29 1015.15 1014.99 1014.85 1014.72 1014.66 1014.47 1013.30 1008.52 1007.09 1008.33 1008.79 1009.38 1008.99 1007.77 1006.74 1006.05 1005.43 1004.52 1003.80 1003.67 1003.58 1002.92 1002.58 1002.10 1002.52 1003.02 1002.82 1002.89 1002.86 1002.80 1002.88 1002.65 1002.88 1002.80 1002.58 1002.44
1017.51 1017.03 1016.60 1016.23 1015.87 1015.59 1015.41 1015.22 1015.14 1015.12 1015.02 1014.84 1014.59 1014.43 1014.03 1010.84 1007.30 1007.52 1008.53 1009.05 1008.91 1008.45 1007.10 1006.16 1005.43 1004.72 1003.90 1003.27 1003.43 1003.14 1002.89 1002.58 1002.65 1002.81 1003.02 1003.06 1002.94 1002.79 1002.56 1002.53 1002.74 1002.69 1003.05 1003.15 1003.06
1017.57 1017.05 1016.56 1016.09 1015.68 1015.40 1015.21 1015.09 1015.00 1014.92 1014.77 1014.55 1014.45 1014.51 1013.04 1008.92 1006.64 1007.45 1007.61 1008.25 1007.68 1007.37 1006.49 1005.74 1004.93 1004.47 1003.67 1003.13 1003.00 1003.00 1003.25 1002.53 1002.78 1002.70 1002.80 1002.87 1002.54 1002.41 1002.31 1002.46 1002.46 1002.33 1002.44 1002.38 1002.22
1017.44 1017.07 1016.62 1016.12 1015.66 1015.31 1015.05 1014.87 1014.75 1014.75 1014.62 1014.51 1014.45 1013.69 1010.82 1007.23 1006.64 1006.77 1007.16 1007.02 1006.60 1006.45 1005.75 1005.39 1004.92 1004.81 1004.18 1003.48 1003.30 1003.23 1003.21 1002.68 1002.36 1002.17 1002.18 1002.44 1001.92 1001.45 1001.64 1001.96 1001.96 1002.06 1002.05 1002.04 1001.97
1017.37 1016.82 1016.47 1016.13 1015.64 1015.18 1014.83 1014.60 1014.44 1014.32 1014.22 1014.04 1013.99 1012.53 1008.60 1006.38 1006.71 1006.67 1006.57 1006.35 1006.46 1006.23 1005.74 1005.62 1005.89 1005.00 1004.27 1003.60 1003.93 1003.44 1002.79 1001.67 1000.64 1000.97 1001.38 1002.02 1000.83 1000.29 1000.23 1001.39 1001.70 1001.96 1001.74 1001.81 1002.07
1017.32 1016.83 1016.20 1015.80 1015.48 1015.10 1014.67 1014.32 1014.12 1014.10 1014.01 1013.90 1013.32 1011.35 1007.27 1007.53 1006.96 1006.34 1006.23 1006.00 1006.36 1006.39 1006.28 1006.31 1005.94 1005.00 1004.49 1004.00 1003.14 1002.43 1001.34 1000.54 1000.01 1000.68 1001.30 1001.68 1000.61 1000.10 1000.98 1001.38 1001.55 1001.43 1001.48 1001.62 1001.84
1017.00 1016.60 1016.19 1015.60 1015.08 1014.77 1014.49 1013.98 1013.44 1013.92 1013.76 1012.69 1011.33 1010.03 1007.04 1005.58 1005.66 1005.96 1006.09 1005.77 1006.07 1006.21 1006.25 1006.34 1005.47 1004.58 1003.97 1003.00 1001.59 1000.74 1000.61 1000.48 999.77 1000.06 1001.39 1001.13 1000.73 1000.56 1000.50 1001.06 1001.20 1001.38 1001.46 1001.37 1001.47
1016.56 1016.20 1015.80 1015.33 1014.88 1014.47 1014.12 1013.26 1012.76 1011.75 1010.69 1007.89 1007.05 1006.14 1005.41 1005.33 1005.56 1005.50 1005.84 1006.02 1005.87 1005.85 1005.39 1005.23 1004.55 1003.20 1002.64 1002.18 1001.80 1001.24 1001.24 1000.46 1000.15 1000.29 1000.65 1000.84 1000.84 1000.45 1000.18 1000.22 1000.37 1000.63 1000.82 1001.03 1001.08
1016.13 1015.69 1015.24 1014.78 1014.38 1014.11 1013.57 1010.97 1008.40 1007.95 1007.38 1006.45 1006.21 1005.48 1005.18 1005.50 1005.02 1005.11 1005.70 1005.64 1005.37 1004.79 1004.84 1004.21 1003.44 1002.89 1002.44 1002.21 1002.27 1002.27 1001.96 1001.32 1000.99 1000.84 1001.04 1001.09 1000.56 1000.28 1000.04 999.93 1000.05 1000.16 1000.14 1000.24 1000.50
1015.45 1015.07 1014.59 1014.11 1013.68 1013.16 1010.89 1009.00 1008.21 1008.16 1007.18 1005.60 1005.48 1005.06 1004.87 1005.26 1004.60 1004.29 1005.24 1005.05 1004.54 1004.27 1003.59 1003.04 1002.15 1002.46 1002.71 1002.32 1002.65 1002.39 1002.05 1001.48 1001.12 1000.91 1000.97 1001.16 1000.28 1000.09 999.83 999.59 999.55 999.70 999.87 999.95 1000.10
1014.80 1014.30 1013.85 1013.38 1013.18 1008.95 1008.38 1007.90 1007.78 1008.13 1006.35 1005.37 1005.21 1005.08 1005.07 1004.78 1004.51 1003.79 1004.62 1004.64 1004.26 1003.66 1003.17 1002.47 1002.40 1002.28 1002.49 1002.52 1002.49 1001.82 1001.85 1001.76 1001.81 1001.63 1000.66 1000.33 998.80 998.35 998.26 998.19 998.23 998.59 999.11 999.68 999.87
1014.18 1013.46 1012.97 1013.05 1010.91 1007.91 1007.27 1007.10 1007.18 1007.69 1005.18 1004.12 1004.60 1005.09 1004.70 1004.58 1004.18 1004.18 1004.34 1004.40 1003.90 1003.47 1003.69 1002.37 1002.21 1002.43 1002.24 1002.02 1002.05 1001.94 1001.90 1001.92 1001.75 1001.52 1000.96 1000.18 999.12 997.87 997.48 997.31 997.38 997.89 998.66 999.11 999.45
1013.49 1012.78 1012.24 1011.82 1010.78 1007.90 1007.50 1007.52 1007.48 1006.18 1003.75 1003.50 1004.18 1004.34 1004.89 1004.98 1004.65 1004.68 1004.59 1004.86 1004.72 1004.31 1003.44 1003.17 1002.37 1002.62 1002.32 1001.98 1002.43 1002.33 1002.27 1002.34 1002.08 1001.44 999.89 999.39 998.45 997.15 996.57 996.33 996.50 997.09 997.92 998.75 1000.14
1012.89 1012.38 1012.02 1009.43 1007.76 1007.61 1007.44 1007.11 1005.83 1004.15 1004.21 1004.08 1003.93 1004.03 1003.80 1004.30 1004.69 1004.84 1005.19 1005.19 1005.04 1004.70 1004.24 1003.59 1002.79 1002.51 1002.61 1002.64 1002.57 1002.71 1002.73 1001.79 1000.94 999.97 998.32 998.14 997.16 996.17 996.08 996.66 997.15 997.76 998.27 999.59 1000.98
1012.25 1011.92 1010.38 1008.77 1008.17 1008.07 1007.42 1006.25 1005.16 1004.53 1004.35 1005.33 1005.28 1004.69 1004.74 1004.93 1005.36 1005.64 1005.67 1005.63 1005.79 1005.63 1004.96 1004.04 1002.95 1002.69 1002.49 1002.26 1002.44 1002.30 1002.53 1002.27 1001.43 1000.56 998.99 998.47 997.34 996.76 996.61 996.87 997.74 998.46 999.26 1000.20 1001.23
1011.52 1009.64 1008.14 1008.05 1008.22 1008.02 1006.72 1005.49 1004.53 1004.86 1005.45 1005.60 1006.02 1005.87 1005.81 1006.00 1006.48 1006.09 1005.78 1005.79 1006.21 1006.58 1006.69 1005.71 1004.36 1003.52 1003.72 1003.55 1003.83 1003.52 1003.07 1003.45 1003.63 1003.03 1001.35 1000.01 998.54 997.21 996.53 996.55 997.88 999.13 999.97 1000.71 1001.70
1011.16 1008.49 1007.76 1007.89 1007.97 1007.61 1006.00 1005.14 1004.98 1005.76 1006.17 1006.26 1006.27 1006.62 1006.56 1006.92 1007.34 1007.37 1007.26 1006.75 1006.84 1007.38 1008.29 1007.91 1006.85 1005.74 1005.42 1004.88 1004.66 1004.32 1004.66 1005.38 1005.39 1003.95 1001.94 1000.33 999.05 998.01 998.54 998.31 998.75 999.91 1000.64 1001.43 1002.39
1010.82 1007.75 1007.86 1007.76 1007.69 1006.50 1004.80 1004.89 1005.58 1006.39 1006.64 1006.71 1006.81 1007.40 1007.77 1007.72 1007.78 1007.92 1008.16 1007.67 1007.95 1007.98 1008.47 1008.49 1008.18 1007.03 1006.42 1005.38 1004.78 1004.89 1005.46 1005.65 1005.81 1005.16 1003.61 1001.85 1000.29 999.35 1000.10 1000.55 1000.57 1000.88 1001.64 1002.29 1002.92
1009.65 1006.92 1007.79 1007.69 1006.95 1005.41 1004.70 1005.96 1007.03 1006.79 1007.37 1007.18 1007.30 1007.44 1008.20 1008.59 1008.42 1008.36 1008.15 1008.40 1008.96 1008.95 1008.92 1009.38 1009.75 1007.78 1006.28 1005.35 1004.89 1005.24 1005.37 1005.81 1006.51 1005.65 1004.59 1003.68 1001.97 1000.93 1001.29 1001.66 1001.96 1002.05 1002.56 1002.96 1002.80
1009.24 1007.79 1007.80 1007.53 1005.76 1005.54 1006.70 1006.79 1007.26 1007.38 1007.41 1007.57 1007.48 1008.25 1008.62 1008.71 1009.15 1008.35 1008.59 1008.91 1009.36 1009.81 1010.28 1010.30 1009.98 1008.52 1005.88 1004.55 1004.81 1005.10 1005.74 1006.12 1006.52 1006.51 1005.20 1004.56 1002.15 1002.46 1002.71 1002.94 1003.10 1003.32 1003.02 1002.68 1002.84
1009.97 1007.45 1007.45 1007.54 1007.63 1007.37 1007.28 1007.18 1007.45 1008.44 1008.31 1008.71 1008.38 1008.67 1009.05 1009.62 1009.85 1009.39 1009.40 1010.12 1010.49 1010.85 1012.00 1012.11 1010.92 1010.08 1008.47 1006.46 1007.28 1007.21 1006.83 1006.49 1006.44 1006.10 1005.00 1003.76 1002.64 1002.34 1002.58 1003.89 1003.88 1003.34 1002.84 1002.79 1002.68
1010.40 1009.49 1009.64 1007.57 1007.98 1008.49 1008.66 1008.58 1008.18 1008.36 1008.94 1009.19 1008.78 1009.42 1009.65 1009.87 1009.45 1009.63 1009.81 1010.13 1010.86 1011.36 1012.09 1012.50 1011.54 1010.68 1009.25 1008.24 1007.32 1006.37 1005.85 1005.59 1005.28 1005.08 1004.78 1003.70 1003.13 1002.60 1002.64 1002.35 1002.28 1002.44 1002.72 1002.57 1002.56
1011.06 1010.33 1009.84 1009.50 1009.78 1009.28 1009.49 1009.05 1009.16 1009.44 1009.75 1009.14 1009.75 1009.93 1010.80 1010.79 1010.54 1010.12 1010.36 1010.77 1010.80 1011.07 1011.66 1012.51 1011.75 1010.85 1009.05 1007.87 1006.89 1005.82 1004.84 1004.31 1003.78 1003.43 1003.16 1002.97 1002.19 1001.91 1001.89 1002.35 1002.91 1003.09 1002.99 1003.13 1002.72
1012.34 1011.95 1011.03 1010.14 1009.69 1009.50 1009.28 1009.99 1010.29 1010.70 1010.31 1010.60 1010.86 1011.11 1010.76 1010.88 1011.01 1010.69 1010.63 1010.58 1010.80 1011.38 1011.85 1012.39 1012.28 1011.08 1008.90 1007.51 1006.53 1004.95 1003.48 1002.79 1002.29 1002.26 1002.17 1001.78 1001.15 1001.31 1001.82 1002.23 1002.44 1002.55 1002.42 1002.29 1002.29
Thickness
5598 5601 5604 5608 5612 5615 5620 5624 5629 5635 5639 5644 5648 5652 5658 5662 5670 5681 5697 5719 5722 5721 5724 5738 5740 5744 5749 5751 5761 5762 5740 5737 5757 5761 5773 5795 5777 5797 5798 5790 5798 5811 5812 5817 5821
5601 5603 5606 5610 5614 5619 5623 5627 5631 5635 5639 5643 5647 5652 5657 5661 5675 5695 5716 5715 5716 5716 5720 5729 5729 5737 5737 5744 5748 5744 5738 5751 5776 5777 5770 5780 5771 5780 5771 5776 5783 5792 5808 5814 5813
5603 5605 5608 5612 5617 5621 5625 5629 5632 5636 5640 5644 5649 5653 5656 5661 5683 5718 5721 5717 5713 5712 5724 5735 5739 5735 5732 5743 5743 5743 5738 5768 5767 5764 5767 5766 5762 5765 5754 5754 5777 5780 5793 5803 5803
5604 5607 5610 5613 5617 5621 5625 5628 5632 5636 5640 5644 5647 5650 5654 5666 5691 5721 5714 5712 5709 5714 5723 5726 5728 5723 5727 5731 5746 5730 5751 5756 5762 5763 5757 5754 5762 5758 5761 5762 5778 5779 5785 5788 5792
5604 5607 5611 5614 5618 5621 5624 5627 5630 5633 5636 5640 5645 5649 5657 5679 5700 5713 5708 5706 5709 5713 5718 5721 5721 5725 5722 5736 5737 5733 5741 5750 5753 5753 5752 5755 5749 5752 5755 5769 5777 5776 5774 5772 5776
5602 5606 5609 5614 5618 5621 5624 5626 5629 5631 5635 5639 5641 5643 5657 5673 5714 5709 5710 5707 5712 5713 5717 5723 5724 5731 5730 5733 5731 5737 5734 5744 5745 5746 5748 5741 5747 5752 5757 5767 5765 5769 5770 5774 5776
5600 5603 5607 5611 5615 5620 5623 5626 5628 5629 5631 5634 5637 5645 5665 5689 5708 5709 5708 5710 5718 5717 5715 5725 5731 5721 5726 5722 5737 5733 5719 5732 5738 5744 5741 5747 5737 5744 5762 5761 5758 5761 5764 5768 5772
5598 5602 5605 5608 5613 5617 5621 5624 5628 5630 5632 5635 5637 5650 5671 5705 5704 5705 5709 5708 5714 5717 5718 5723 5720 5718 5720 5730 5720 5713 5721 5714 5747 5747 5748 5739 5725 5757 5770 5756 5750 5752 5757 5760 5763
5596 5599 5604 5607 5610 5614 5619 5623 5626 5627 5630 5633 5640 5652 5674 5692 5689 5702 5706 5700 5703 5706 5710 5711 5710 5706 5711 5700 5702 5714 5707 5721 5734 5745 5736 5728 5727 5753 5752 5748 5742 5748 5752 5753 5754
5596 5598 5601 5605 5610 5613 5617 5622 5628 5625 5627 5636 5648 5648 5676 5684 5695 5696 5702 5703 5693 5693 5691 5690 5695 5693 5699 5701 5693 5713 5713 5720 5725 5738 5724 5719 5723 5738 5745 5740 5737 5739 5743 5746 5747
5596 5598 5601 5604 5608 5611 5616 5627 5634 5636 5643 5667 5673 5676 5681 5692 5695 5690 5694 5688 5690 5685 5676 5688 5682 5687 5700 5710 5715 5715 5707 5712 5727 5735 5718 5714 5714 5727 5739 5740 5736 5737 5738 5739 5742
5594 5597 5600 5604 5608 5611 5615 5636 5657 5661 5653 5672 5672 5676 5685 5683 5674 5683 5690 5674 5675 5671 5679 5681 5675 5698 5708 5707 5699 5697 5691 5697 5713 5720 5709 5704 5708 5723 5729 5733 5734 5733 5736 5739 5740
5595 5597 5601 5607 5610 5616 5634 5644 5655 5654 5645 5664 5670 5669 5674 5675 5670 5676 5680 5676 5673 5670 5679 5675 5693 5698 5691 5692 5681 5686 5685 5693 5694 5708 5707 5700 5698 5707 5721 5730 5733 5733 5737 5737 5735
5596 5599 5602 5608 5612 5648 5644 5653 5654 5651 5641 5649 5656 5661 5667 5671 5661 5687 5683 5674 5671 5668 5678 5682 5694 5687 5683 5676 5683 5676 5698 5692 5684 5682 5674 5707 5682 5713 5723 5725 5730 5732 5733 5729 5731
5598 5602 5605 5605 5625 5644 5651 5656 5656 5645 5624 5661 5655 5667 5665 5658 5664 5666 5681 5672 5662 5668 5665 5673 5677 5671 5670 5680 5685 5676 5692 5684 5685 5678 5678 5685 5679 5703 5724 5714 5722 5725 5725 5726 5725
5602 5606 5608 5611 5617 5642 5647 5648 5643 5631 5626 5652 5656 5652 5643 5645 5649 5655 5658 5664 5662 5655 5667 5668 5687 5674 5677 5682 5676 5685 5675 5673 5675 5675 5662 5686 5688 5698 5713 5723 5726 5727 5724 5717 5701
5606 5608 5611 5626 5635 5640 5642 5639 5631 5633 5653 5640 5643 5651 5652 5643 5641 5641 5633 5632 5632 5630 5634 5653 5662 5675 5674 5658 5669 5667 5656 5647 5654 5666 5670 5709 5698 5708 5722 5716 5713 5713 5713 5696 5686
5611 5612 5623 5632 5635 5635 5634 5631 5613 5636 5637 5637 5634 5640 5630 5636 5630 5628 5626 5620 5632 5630 5627 5629 5635 5657 5669 5661 5653 5659 5658 5639 5623 5642 5669 5693 5669 5689 5718 5710 5704 5700 5698 5687 5675
5615 5630 5638 5637 5635 5634 5633 5619 5630 5631 5631 5624 5622 5615 5617 5622 5618 5622 5624 5623 5624 5623 5607 5613 5625 5656 5652 5655 5647 5641 5636 5655 5618 5629 5635 5656 5676 5699 5712 5708 5686 5672 5670 5671 5661
5618 5636 5636 5638 5637 5633 5634 5616 5634 5634 5629 5625 5609 5615 5607 5609 5604 5604 5604 5621 5615 5615 5607 5599 5592 5623 5625 5633 5636 5631 5638 5603 5610 5590 5611 5645 5657 5665 5660 5670 5671 5654 5651 5645 5643
5619 5633 5634 5637 5636 5635 5636 5636 5633 5631 5628 5618 5612 5603 5601 5602 5604 5598 5594 5609 5608 5606 5604 5598 5589 5601 5610 5612 5613 5615 5600 5608 5608 5611 5598 5610 5633 5670 5648 5642 5646 5644 5636 5626 5618
5623 5631 5632 5634 5622 5640 5642 5630 5607 5622 5620 5617 5617 5613 5598 5596 5595 5594 5596 5594 5598 5598 5588 5587 5567 5580 5600 5619 5624 5611 5605 5602 5569 5590 5604 5597 5600 5652 5632 5631 5627 5625 5619 5613 5614
5622 5624 5628 5627 5625 5629 5620 5619 5616 5613 5613 5610 5609 5603 5601 5595 5582 5598 5593 5595 5592 5584 5573 5575 5563 5567 5596 5616 5613 5600 5595 5593 5585 5581 5580 5575 5606 5621 5613 5610 5607 5600 5602 5604 5601
5615 5621 5621 5620 5616 5611 5608 5610 5606 5602 5601 5597 5599 5597 5589 5577 5579 5579 5578 5574 5573 5568 5551 5547 5558 5551 5556 5583 5568 5556 5567 5577 5575 5563 5579 5588 5597 5609 5602 5582 5585 5589 5591 5592 5593
5608 5602 5598 5612 5606 5600 5597 5596 5597 5593 5593 5590 5590 5581 5577 5568 5577 5571 5572 5566 5558 5555 5542 5535 5534 5544 5552 5556 5563 5569 5571 5576 5571 5575 5563 5580 5579 5589 5591 5595 5594 5588 5584 5582 5580
5593 5594 5599 5595 5588 5591 5573 5589 5585 5583 5578 5584 5574 5573 5560 5555 5559 5559 5554 5548 5547 5547 5536 5521 5523 5534 5545 5557 5558 5559 5574 5578 5582 5583 5579 5578 5579 5596 5592 5584 5574 5570 5568 5564 5566
5580 5581 5583 5575 5587 5586 5589 5578 5573 5569 5574 5568 5562 5555 5555 5554 5554 5554 5551 5548 5542 5531 5522 5514 5508 5521 5538 5555 5554 5555 5575 5580 5586 5587 5584 5576 5593 5593 5581 5573 5570 5568 5569 5565 5562